{"data":{"norad_id":81536,"epoch":"2026-09-17T09:06:11.488032Z","epoch_age_seconds":284292,"freshness":"STALE","line1":"1 81536U          26260.37929963  .00000518  00000+0  34183-2 0  9991","line2":"2 81536 101.9672 129.9343 0023400  79.3308  96.5673 12.56187137586793","mean_motion":12.56187137,"eccentricity":0.00234,"inclination_deg":101.9672,"raan_deg":129.9343,"arg_perigee_deg":79.3308,"mean_anomaly_deg":96.5673,"bstar":0.0034183,"rev_number":58679,"period_min":114.63260190985,"perigee_km":1420.4305806838,"apogee_km":1457.0134809481,"semimajor_km":7816.859030816,"source":"CELESTRAK","updated_at":"2026-09-20T09:00:32.390370Z"}}